When you browse on this site, cookies collect data to enhance your experience and personalize the content and advertising you see.
Visit our Privacy Policy to learn more. By continuing to use the site, you agree to this use of cookies and data.
  • en France
  • Liste des pays
  • À 7 jours
  • Température de l'eau
  • Carte satellitaire
  • Carte météo
  • Widgets météo
  • user-avatar
    Se connecter

    Météo par heure à Ablon-sur-Seine

    Ce jour, 22 Juillet, Lundi

    Heure Température Précipitation Vent Pression Humidité
    00:00 +20°C° 0 mm 2 m/s 761 mmHg 62%
    01:00 +21°C° 0 mm 1 m/s 761 mmHg 65%
    02:00 +20°C° 0 mm 1 m/s 761 mmHg 68%
    03:00 +20°C° 0 mm 1 m/s 761 mmHg 70%
    04:00 +20°C° 0 mm 1 m/s 761 mmHg 69%
    05:00 +21°C° 0 mm 1 m/s 761 mmHg 67%
    06:00 +22°C° 0 mm 1 m/s 761 mmHg 64%
    07:00 +24°C° 0 mm 1 m/s 761 mmHg 58%
    08:00 +26°C° 0 mm 1 m/s 761 mmHg 52%
    09:00 +26°C° 0 mm 0 m/s 761 mmHg 45%
    10:00 +29°C° 0 mm 1 m/s 761 mmHg 41%
    11:00 +31°C° 0 mm 1 m/s 761 mmHg 36%
    12:00 +32°C° 0 mm 1 m/s 761 mmHg 31%
    13:00 +33°C° 0 mm 1 m/s 760 mmHg 30%
    14:00 +33°C° 0 mm 1 m/s 760 mmHg 29%
    15:00 +33°C° 0 mm 1 m/s 760 mmHg 28%
    16:00 +34°C° 0 mm 2 m/s 759 mmHg 31%
    17:00 +32°C° 0 mm 2 m/s 759 mmHg 34%
    18:00 +31°C° 0 mm 2 m/s 759 mmHg 37%
    19:00 +30°C° 0 mm 3 m/s 759 mmHg 41%
    20:00 +28°C° 0 mm 3 m/s 759 mmHg 46%
    21:00 +26°C° 0 mm 3 m/s 759 mmHg 50%
    22:00 +26°C° 0 mm 3 m/s 759 mmHg 53%
    23:00 +25°C° 0 mm 3 m/s 759 mmHg 56%

    Demain, 23 Juillet, Mardi

    Heure Température Précipitation Vent Pression Humidité
    00:00 +24°C° 0 mm 3 m/s 759 mmHg 58%
    01:00 +22°C° 0 mm 3 m/s 758 mmHg 60%
    02:00 +23°C° 0 mm 2 m/s 758 mmHg 62%
    03:00 +21°C° 0 mm 2 m/s 758 mmHg 63%
    04:00 +23°C° 0 mm 2 m/s 758 mmHg 62%
    05:00 +23°C° 0 mm 2 m/s 758 mmHg 60%
    06:00 +23°C° 0 mm 2 m/s 757 mmHg 58%
    07:00 +26°C° 0 mm 3 m/s 757 mmHg 52%
    08:00 +28°C° 0 mm 3 m/s 757 mmHg 46%
    09:00 +30°C° 0 mm 3 m/s 757 mmHg 40%
    10:00 +33°C° 0 mm 3 m/s 757 mmHg 37%
    11:00 +34°C° 0 mm 3 m/s 756 mmHg 34%
    12:00 +36°C° 0 mm 4 m/s 756 mmHg 30%
    13:00 +36°C° 0 mm 3 m/s 756 mmHg 29%
    14:00 +37°C° 0 mm 3 m/s 755 mmHg 28%
    15:00 +38°C° 0 mm 3 m/s 755 mmHg 27%
    16:00 +37°C° 0 mm 3 m/s 754 mmHg 29%
    17:00 +36°C° 0 mm 3 m/s 754 mmHg 31%
    18:00 +35°C° 0 mm 3 m/s 754 mmHg 33%
    19:00 +34°C° 0 mm 3 m/s 754 mmHg 38%
    20:00 +32°C° 0 mm 4 m/s 754 mmHg 42%
    21:00 +29°C° 0 mm 4 m/s 754 mmHg 46%
    22:00 +28°C° 0 mm 3 m/s 753 mmHg 49%
    23:00 +28°C° 0 mm 3 m/s 753 mmHg 52%

    Après-demain, 24 Juillet, Mercredi

    Heure Température Précipitation Vent Pression Humidité
    00:00 +27°C° 0 mm 3 m/s 753 mmHg 56%
    01:00 +26°C° 0 mm 3 m/s 753 mmHg 57%
    02:00 +26°C° 0 mm 2 m/s 752 mmHg 59%
    03:00 +25°C° 0 mm 2 m/s 752 mmHg 60%
    04:00 +26°C° 0 mm 2 m/s 752 mmHg 59%
    05:00 +26°C° 0 mm 2 m/s 752 mmHg 57%
    06:00 +27°C° 0 mm 2 m/s 753 mmHg 56%
    07:00 +29°C° 0 mm 2 m/s 753 mmHg 50%
    08:00 +31°C° 0 mm 2 m/s 753 mmHg 45%
    09:00 +34°C° 0 mm 2 m/s 753 mmHg 39%
    10:00 +36°C° 0 mm 2 m/s 753 mmHg 35%
    11:00 +37°C° 0 mm 2 m/s 753 mmHg 31%
    12:00 +39°C° 0 mm 3 m/s 753 mmHg 27%
    13:00 +40°C° 0 mm 2 m/s 753 mmHg 26%
    14:00 +40°C° 0 mm 2 m/s 752 mmHg 25%
    15:00 +41°C° 0 mm 2 m/s 752 mmHg 24%
    16:00 +40°C° 0 mm 2 m/s 752 mmHg 26%
    17:00 +40°C° 0 mm 1 m/s 752 mmHg 27%
    18:00 +39°C° 0 mm 1 m/s 752 mmHg 29%
    19:00 +36°C° 0 mm 1 m/s 752 mmHg 33%
    20:00 +34°C° 0 mm 1 m/s 752 mmHg 38%
    21:00 +32°C° 0 mm 1 m/s 752 mmHg 43%
    22:00 +31°C° 0 mm 1 m/s 752 mmHg 46%
    23:00 +30°C° 0 mm 1 m/s 752 mmHg 49%

    25 Juillet, Jeudi

    Heure Température Précipitation Vent Pression Humidité
    00:00 +29°C° 0 mm 1 m/s 752 mmHg 52%
    01:00 +29°C° 0 mm 1 m/s 752 mmHg 53%
    02:00 +28°C° 0 mm 1 m/s 752 mmHg 54%
    03:00 +27°C° 0 mm 1 m/s 752 mmHg 55%
    04:00 +27°C° 0 mm 2 m/s 752 mmHg 53%
    05:00 +28°C° 0 mm 3 m/s 752 mmHg 51%
    06:00 +28°C° 0 mm 3 m/s 752 mmHg 50%
    07:00 +30°C° 0 mm 3 m/s 752 mmHg 44%
    08:00 +34°C° 0 mm 3 m/s 752 mmHg 39%
    09:00 +36°C° 0 mm 4 m/s 752 mmHg 34%
    10:00 +38°C° 0 mm 4 m/s 752 mmHg 30%
    11:00 +41°C° 0 mm 4 m/s 751 mmHg 26%
    12:00 +43°C° 0 mm 4 m/s 751 mmHg 21%
    13:00 +44°C° 0 mm 4 m/s 751 mmHg 20%
    14:00 +44°C° 0 mm 4 m/s 750 mmHg 18%
    15:00 +45°C° 0 mm 4 m/s 750 mmHg 17%
    16:00 +43°C° 0.2 mm 3 m/s 750 mmHg 19%
    17:00 +40°C° 0.2 mm 3 m/s 750 mmHg 22%
    18:00 +39°C° 0.2 mm 3 m/s 750 mmHg 25%
    19:00 +37°C° 0.5 mm 3 m/s 750 mmHg 30%
    20:00 +35°C° 0.5 mm 2 m/s 751 mmHg 36%
    21:00 +32°C° 0.5 mm 2 m/s 751 mmHg 42%
    22:00 +30°C° 0 mm 2 m/s 751 mmHg 48%
    23:00 +29°C° 0 mm 2 m/s 751 mmHg 54%

    26 Juillet, Vendredi

    Heure Température Précipitation Vent Pression Humidité
    00:00 +28°C° 0 mm 2 m/s 751 mmHg 60%
    01:00 +27°C° 0 mm 2 m/s 751 mmHg 63%
    02:00 +26°C° 0 mm 3 m/s 751 mmHg 65%
    03:00 +25°C° 0 mm 3 m/s 751 mmHg 68%
    04:00 +25°C° 0 mm 3 m/s 751 mmHg 67%
    05:00 +25°C° 0 mm 4 m/s 752 mmHg 67%
    06:00 +25°C° 0 mm 4 m/s 752 mmHg 66%
    07:00 +26°C° 0.1 mm 4 m/s 752 mmHg 63%
    08:00 +27°C° 0.1 mm 4 m/s 753 mmHg 59%
    09:00 +27°C° 0.1 mm 4 m/s 753 mmHg 56%
    10:00 +28°C° 0.2 mm 4 m/s 753 mmHg 55%
    11:00 +29°C° 0.2 mm 4 m/s 753 mmHg 54%
    12:00 +30°C° 0.2 mm 5 m/s 753 mmHg 54%
    13:00 +29°C° 0.2 mm 4 m/s 753 mmHg 55%
    14:00 +29°C° 0.2 mm 4 m/s 753 mmHg 56%
    15:00 +29°C° 0.2 mm 4 m/s 752 mmHg 58%
    16:00 +28°C° 0.1 mm 4 m/s 752 mmHg 58%
    17:00 +28°C° 0.1 mm 4 m/s 752 mmHg 57%
    18:00 +28°C° 0.1 mm 4 m/s 752 mmHg 57%
    19:00 +26°C° 0.2 mm 4 m/s 753 mmHg 60%
    20:00 +23°C° 0.2 mm 4 m/s 753 mmHg 62%
    21:00 +22°C° 0.2 mm 4 m/s 754 mmHg 64%
    22:00 +21°C° 0.2 mm 4 m/s 754 mmHg 66%
    23:00 +21°C° 0.2 mm 3 m/s 754 mmHg 69%

    27 Juillet, Samedi

    Heure Température Précipitation Vent Pression Humidité
    00:00 +20°C° 0.2 mm 3 m/s 754 mmHg 71%
    01:00 +20°C° 0.1 mm 3 m/s 754 mmHg 70%
    02:00 +20°C° 0.1 mm 3 m/s 754 mmHg 70%
    03:00 +20°C° 0.1 mm 3 m/s 754 mmHg 69%
    04:00 +19°C° 0 mm 3 m/s 754 mmHg 69%
    05:00 +19°C° 0 mm 3 m/s 754 mmHg 70%
    06:00 +19°C° 0 mm 3 m/s 754 mmHg 70%
    07:00 +21°C° 0 mm 3 m/s 755 mmHg 63%
    08:00 +22°C° 0 mm 3 m/s 755 mmHg 57%
    09:00 +25°C° 0 mm 3 m/s 755 mmHg 50%
    10:00 +26°C° 0 mm 3 m/s 755 mmHg 47%
    11:00 +27°C° 0 mm 3 m/s 755 mmHg 43%
    12:00 +29°C° 0 mm 3 m/s 755 mmHg 40%
    13:00 +29°C° 0 mm 3 m/s 754 mmHg 39%
    14:00 +29°C° 0 mm 2 m/s 754 mmHg 38%
    15:00 +29°C° 0 mm 2 m/s 754 mmHg 37%
    16:00 +29°C° 0 mm 2 m/s 754 mmHg 38%
    17:00 +29°C° 0 mm 2 m/s 754 mmHg 38%
    18:00 +29°C° 0 mm 2 m/s 754 mmHg 39%
    19:00 +27°C° 0 mm 2 m/s 754 mmHg 45%
    20:00 +25°C° 0 mm 3 m/s 754 mmHg 51%
    21:00 +24°C° 0 mm 3 m/s 755 mmHg 57%
    22:00 +21°C° 0 mm 3 m/s 755 mmHg 60%
    23:00 +20°C° 0 mm 3 m/s 755 mmHg 63%
    Voir plus